Regional Weather Roundup
Issued by NWS

Home | Current Version | Previous Version | Graphics & Text | Print | Product List | Glossary On
Versions: 1 2 3 4 5 6 7 8 9 10 11 12 13 14 15 16 17 18 19 20 21 22 23 24 25 26 27 28 29 30 31 32 33 34 35 36 37 38 39 40 41 42 43 44 45 46 47 48 49 50
000
ASUS43 KLOT 251006
RWRIL

ILLINOIS REGIONAL WEATHER ROUNDUP
NATIONAL WEATHER SERVICE CHICAGO/ROMEOVILLE IL
400 AM CST SUN JAN 25 2015

NOTE: "FAIR" INDICATES FEW OR NO CLOUDS BELOW 12,000 FEET WITH NO
SIGNIFICANT WEATHER AND/OR OBSTRUCTIONS TO VISIBILITY.

* THESE STATIONS ARE NOT UNDER NWS QUALITY CONTROL. THEY ALSO MAY NOT
  REPORT WEATHER SUCH AS PRECIPITATION OR FOG.

ILZ001-002-007-009-015-016-024-251100-
NORTHWEST ILLINOIS

CITY           SKY/WX    TMP DP  RH WIND       PRES   REMARKS
MOLINE         CLOUDY    34  31  88 E6        29.59R WCI  29
STERLING*      CLOUDY    34  30  86 E17       29.63R WCI  23
SAVANNA*       CLOUDY    34  31  91 NE12G17   29.63S WCI  25
$$

ILZ003-004-008-010-011-017-018-251100-
NORTH CENTRAL ILLINOIS

CITY           SKY/WX    TMP DP  RH WIND       PRES   REMARKS
ROCKFORD       CLOUDY    33  29  85 NE17G26   29.69R WCI  22
FREEPORT*      CLOUDY    32  31  94 E15       29.68R WCI  22
ROCHELLE*      CLOUDY    32  31  95 NE14      29.66R FOG     WCI  22
DE KALB*       CLOUDY    31  30  94 NE14      29.67R FOG     WCI  21
PERU*          CLOUDY    34  33  96 E14       29.63R FOG     WCI  25
$$

ILZ005-006-012>014-019>023-251100-
NORTHEAST ILLINOIS

CITY           SKY/WX    TMP DP  RH WIND       PRES   REMARKS
CHICAGO-OHARE  CLOUDY    33  30  88 NE9       29.67S FOG     WCI  25
CHICAGO-MIDWAY CLOUDY    35  32  88 NE8       29.68R WCI  29
AURORA         CLOUDY    33  29  85 NE13      29.67R FOG     WCI  24
LANSING*       CLOUDY    33  32  96 NE6       29.68R FOG     WCI  27
JOLIET*        CLOUDY    33  31  93 NE5       29.67R FOG     WCI  28
WAUKEGAN       FLURRIES  31  29  92 N14G25    29.70R WCI  21
DUPAGE AIRPORT CLOUDY    33  30  88 NE10      29.67R FOG     WCI  25
KANKAKEE*      CLOUDY    32  31  98 E6        29.65F FOG     WCI  26
WHEELING       CLOUDY    34  32  92 NE13      29.71R WCI  25
MORRIS*        CLOUDY    33  33  99 E7        29.65R FOG     WCI  27
ROMEOVILLE*    CLOUDY    32  31  98 NE8       29.67R FOG     WCI  25
NORTHERLY ISL    N/A     33  31  92 N9          N/A  WCI  25
$$

LMZ740>746-251100-
SOUTHERN LAKE MICHIGAN

STATION/POSITION SKY/WX   TEMP    WIND        PRES    VSBY  WAVE
                          AIR SEA DIR/SP/G                  HT/PER
                          (F)     (DEG/KT/KT) (MB)    (MI)  (FT/S)
WAUKEGAN HARBOR            33      30/ 22/ 27   N/A
HARRISON CRIB              33     360/  6/  6   N/A
BURNHAM HARBOR             33      10/  7/  9   N/A
CALUMET HARBOR             33      30/  8/ 10   N/A
MICHIGAN CITY              33      30/  9/ 10   N/A
$$

ILZ025>027-034>036-040-047-049-050-058-095>099-251100-
WEST-CENTRAL ILLINOIS

CITY           SKY/WX    TMP DP  RH WIND       PRES   REMARKS
QUINCY         CLOUDY    40  33  76 SW5       29.57F
GALESBURG*     DRIZZLE   35  33  93 CALM      29.57F
MACOMB*        LGT RAIN  39  35  85 CALM      29.59F
JACKSONVILLE*  LGT RAIN  45  35  68 SW7       29.59S
PITTSFIELD*    CLOUDY    45  35  68 CALM      29.59F
$$

ILZ028>032-037-038-041>044-048-051>054-059>061-251100-
CENTRAL ILLINOIS

CITY           SKY/WX    TMP DP  RH WIND       PRES   REMARKS
PONTIAC        CLOUDY    34  33  96 E8        29.62F WCI  27
BLOOMINGTON    MOCLDY    34  32  92 S5        29.60F WCI  30
DECATUR        CLOUDY    37  32  82 S3        29.61F
PEORIA         CLOUDY    39  32  76 CALM      29.59F
LACON*         CLOUDY    34  31  90 E8        29.61S WCI  27
LINCOLN*       CLOUDY    37  33  85 S3        29.60F
SPRINGFIELD    CLOUDY    42  33  70 S3        29.60F
TAYLORVILLE    CLOUDY    37  32  81 S9        29.60F WCI  31
$$

ILZ033-039-045-046-055>057-062-063-251100-
EAST-CENTRAL ILLINOIS

CITY           SKY/WX    TMP DP  RH WIND       PRES   REMARKS
CHAMPAIGN      CLOUDY    34  31  88 SE6       29.62F WCI  29
DANVILLE*      MOCLDY    33  32  93 SE5       29.61F WCI  29
RANTOUL*       CLOUDY    34  32  94 SE5       29.62F WCI  30
MATTOON        CLOUDY    38  31  76 S8        29.62F WCI  32
PARIS*         CLOUDY    35  33  90 SE6       29.65S WCI  30
$$

ILZ079-100>102-251100-
SOUTHWEST ILLINOIS

CITY           SKY/WX    TMP DP  RH WIND       PRES   REMARKS
ALTON          DRIZZLE   44  36  74 SW6       29.63F
BELLEVILLE     LGT RAIN  44  40  83 SW6       29.63F
CAHOKIA*       LGT RAIN  47  39  74 S5        29.63F
SPARTA*        CLOUDY    45  34  64 S3        29.66F
$$

ILZ064>066-069>071-074>076-080>082-084>086-088>090-092>094-251100-
SOUTH-CENTRAL ILLINOIS

CITY           SKY/WX    TMP DP  RH WIND       PRES   REMARKS
CARBONDALE     CLOUDY    44  31  60 S10       29.68F
CAIRO*         CLOUDY    42  34  73 S9        29.72F
EFFINGHAM*     CLOUDY    39  29  67 SE5       29.65F
MARION         CLOUDY    45  34  65 S9        29.68F
MT. VERNON     CLOUDY    41  32  70 SW5       29.68S
CENTRALIA*     DRIZZLE   45  33  62 SW12      29.65S
SALEM*         CLOUDY    45  34  65 S7        29.65F
METROPOLIS*    CLOUDY    42  33  70 S7        29.73S
$$

ILZ067-068-072-073-078-083-087-091-251100-
SOUTHEAST ILLINOIS

CITY           SKY/WX    TMP DP  RH WIND       PRES   REMARKS
LAWRENCEVILLE  CLOUDY    37  33  85 S6        29.68F WCI  32
FLORA*         CLOUDY    38  32  79 S8        29.66F WCI  32
FAIRFIELD*     CLOUDY    41  34  75 S5        29.66F
HARRISBURG*    CLOUDY    44  33  65 SW7       29.71S
ROBINSON*      CLOUDY    38  33  81 S9        29.68F WCI  31
CARMI*         CLOUDY    41  36  81 SE7       29.67F
$$

ABBREVIATIONS USED IN REMARKS
   TC - TEMPERATURE IN CELSIUS
  WCI - WIND CHILL INDEX
   HX - HEAT INDEX
  VSB - VISIBILITY
$$



USA.gov is the U.S. government's official web portal to all federal, state and local government web resources and services.